FW9556 Weather Reports


time (UTC)temp
C
wind
direction
speed
KPH
gust
KPH
rain 1hr
cm
rain 24hr
cm
rain mn
cm
humidity
%
barometer
mb
20260506073038 5 190 6.4 16.1 0.18 0.25 0.25 95 1014.3
20260506071544 5 190 3.2 12.9 0.15 0.20 0.20 95 1014.2
20260506061538 5 190 6.4 12.9 0.03 0.08 0.05 93 1014.0
20260506044546 5 190 4.8 9.7 0.00 0.03 0.00 91 1014.1
20260506043040 5 190 3.2 8.0 0.00 0.03 0.00 91 1014.2
20260506041550 5 190 3.2 8.0 0.00 0.00 0.00 90 1014.2
20260506040042 5 190 4.8 9.7 0.00 0.00 0.00 90 1014.2
20260506034544 5 190 4.8 14.5 0.00 0.00 0.00 90 1014.3
20260506033038 6 190 6.4 9.7 0.00 0.00 0.00 91 1014.4
20260506031538 6 190 6.4 12.9 0.00 0.00 0.00 91 1014.5
20260506030037 5 190 1.6 6.4 0.00 0.00 0.00 92 1014.5
20260506024539 4 0 0.0 0.0 0.00 0.00 0.00 88 1014.7
20260506023042 5 0 0.0 0.0 0.00 0.00 0.00 87 1014.7
20260506021546 5 0 0.0 0.0 0.00 0.00 0.00 86 1014.7
20260506020037 5 0 0.0 0.0 0.00 0.00 0.00 84 1014.7
20260506014537 5 0 0.0 0.0 0.00 0.00 0.00 86 1014.8
20260506013044 4 0 0.0 0.0 0.00 0.00 0.00 86 1014.9
20260506011607 4 0 0.0 0.0 0.00 0.00 0.00 87 1015.0
20260506010042 3 0 0.0 0.0 0.00 0.00 0.00 88 1015.1
20260506004543 3 0 0.0 0.0 0.00 0.00 0.00 88 1015.1
20260506003042 3 0 0.0 0.0 0.00 0.00 0.00 88 1015.1
20260506001536 2 0 0.0 0.0 0.00 0.00 0.00 87 1015.2
20260506000046 3 0 0.0 0.0 0.00 0.00 0.00 86 1015.3
20260505234540 3 0 0.0 0.0 0.00 0.00 0.00 85 1015.3
20260505233038 4 0 0.0 0.0 0.00 0.00 0.00 84 1015.3
20260505231541 4 0 0.0 0.0 0.00 0.00 0.00 81 1015.4
20260505230038 5 0 0.0 0.0 0.00 0.00 0.00 79 1015.4
20260505224540 5 0 0.0 3.2 0.00 0.00 0.00 77 1015.6
20260505223036 5 190 0.0 3.2 0.00 0.00 0.00 77 1015.5
20260505221546 5 190 0.0 1.6 0.00 0.00 0.00 78 1015.5
20260505220053 5 0 0.0 1.6 0.00 0.00 0.00 78 1015.7
20260505214544 5 190 0.0 3.2 0.00 0.00 0.00 78 1015.5
20260505213039 5 0 0.0 1.6 0.00 0.00 0.00 79 1015.7
20260505211540 6 0 0.0 4.8 0.00 0.00 0.00 78 1015.8
20260505210046 6 190 1.6 4.8 0.00 0.00 0.00 78 1015.9
20260505204547 6 190 0.0 6.4 0.00 0.00 0.00 79 1015.8
20260505203038 6 0 0.0 1.6 0.00 0.00 0.00 79 1015.7
20260505201541 6 190 0.0 1.6 0.00 0.00 0.00 77 1015.5
20260505200037 7 0 0.0 4.8 0.00 0.00 0.00 76 1015.6
20260505194540 7 190 3.2 11.3 0.00 0.00 0.00 73 1015.6
20260505193042 8 190 1.6 6.4 0.00 0.00 0.00 71 1015.4
20260505191540 9 190 0.0 11.3 0.00 0.00 0.00 71 1015.4
20260505190040 9 190 1.6 9.7 0.00 0.00 0.00 70 1015.4
20260505184537 10 190 4.8 17.7 0.00 0.00 0.00 68 1015.4
20260505183049 10 190 4.8 12.9 0.00 0.00 0.00 67 1015.4
20260505181539 10 190 4.8 14.5 0.00 0.00 0.00 67 1015.4
20260505180043 11 190 3.2 9.7 0.00 0.00 0.00 64 1015.3
20260505174537 11 190 4.8 12.9 0.00 0.00 0.00 61 1015.2
20260505173039 11 190 6.4 12.9 0.00 0.00 0.00 62 1015.2
20260505171537 11 190 3.2 9.7 0.00 0.00 0.00 64 1015.2
20260505170038 11 190 4.8 11.3 0.00 0.00 0.00 62 1015.1
20260505164553 10 190 8.0 17.7 0.00 0.00 0.00 65 1015.0
20260505163043 11 190 4.8 14.5 0.00 0.00 0.00 66 1015.1
20260505161549 11 190 6.4 12.9 0.00 0.00 0.00 65 1015.3
20260505153050 10 190 4.8 16.1 0.00 0.00 0.00 65 1015.3
20260505151538 10 190 6.4 14.5 0.00 0.00 0.00 67 1015.4
20260505124545 10 190 4.8 22.5 0.00 0.00 0.00 69 1015.1
20260505123043 10 190 6.4 20.9 0.00 0.00 0.00 70 1015.3
20260505121539 10 190 4.8 16.1 0.00 0.00 0.00 70 1015.6
20260505120049 10 190 8.0 19.3 0.00 0.00 0.00 70 1015.6
20260505114537 10 190 4.8 16.1 0.00 0.00 0.00 70 1015.6
20260505113038 10 190 8.0 17.7 0.00 0.00 0.00 68 1015.4
20260505111538 10 190 6.4 12.9 0.00 0.00 0.00 70 1015.6
20260505101539 9 190 4.8 14.5 0.00 0.00 0.00 74 1015.8
20260505100039 9 190 3.2 12.9 0.00 0.00 0.00 74 1015.8
20260505094539 9 190 6.4 11.3 0.00 0.00 0.00 73 1015.7
20260505093038 9 190 4.8 12.9 0.00 0.00 0.00 76 1015.6
20260505091540 9 190 6.4 12.9 0.00 0.00 0.00 75 1015.7
20260505090043 8 190 8.0 16.1 0.00 0.00 0.00 77 1015.4
20260505084548 8 190 6.4 14.5 0.00 0.00 0.00 78 1015.6
20260505083047 8 190 8.0 17.7 0.00 0.00 0.00 77 1015.4
20260505081543 8 190 4.8 16.1 0.00 0.00 0.00 80 1015.4
20260505080036 8 190 4.8 11.3 0.00 0.00 0.00 82 1015.3
20260505074539 7 190 6.4 19.3 0.00 0.00 0.00 84 1015.2